Location: Hertford
(51.8000°N, 0.0667°W)
Time: 22:46:20
(UTC+00:00)

Cosmos 494 Rocket - Pass Details

Date: 18 September 2020
Orbit: 741 x 771 km, 74.1° (Epoch: 30 October)

Event Time Altitude Azimuth Distance (km) Brightness Sun altitude
Rises 19:55:20 0° 335° (NNW) 3,243 8.1 -17.0°
Reaches altitude 10° 19:57:43 10° 337° (NNW) 2,317 7.2 -17.3°
Maximum altitude 20:03:00 76° 63° (ENE) 797 3.9 -18.0°
Enters shadow 20:05:39 30° 145° (SE) 1,354 4.8 -18.4°
